Regional Weather Roundup
Issued by NWS Mt. Holly, NJ

Home | Current Version | Previous Version | Text Only | Print | Product List | Glossary On
Versions: 1 2 3 4 5 6 7 8 9 10 11 12 13 14 15 16 17 18 19 20 21 22 23 24 25 26 27 28 29 30 31 32 33 34 35 36 37 38 39 40 41 42 43 44 45 46 47 48 49 50
000
ASUS41 KPHI 200213
RWRPHI

REGIONAL WEATHER ROUNDUP
NATIONAL WEATHER SERVICE MOUNT HOLLY NJ
900 PM EST MON FEB 19 2018

NOTE:  "FAIR" INDICATES FEW OR NO CLOUDS BELOW 12,000 FEET WITH NO
SIGNIFICANT WEATHER AND/OR OBSTRUCTIONS TO VISIBILITY.

 * = STATION DOES NOT REPORT PRECIPITATION (E.G. RAIN, SNOW, ETC.)
        OR FOG.

NJZ015>026-200300-
SOUTHERN NEW JERSEY

CITY           SKY/WX    TMP DP  RH WIND       PRES   REMARKS
POMONA         CLOUDY    52  52 100 S15G25    30.36F FOG
WILDWOOD*      CLOUDY    52  50  93 S13       30.38R
MILLVILLE      CLOUDY    51  49  92 VRB5      30.35S
WRIGHTSTOWN    CLOUDY    54  52  94 SW8       30.31S
MOUNT HOLLY    CLOUDY    53  51  93 S3        30.34R
TRENTON        CLOUDY    45  45 100 CALM      30.33F FOG

$$
NJZ001>014-200300-
NORTHERN NEW JERSEY

CITY           SKY/WX    TMP DP  RH WIND       PRES   REMARKS
SUSSEX         CLOUDY    38  38 100 S3        30.31F FOG
ANDOVER*         N/A     38  38 100 CALM      30.32F
MORRISTOWN     FOG       39  39 100 CALM      30.34F VSB 1
NEWARK         DRIZZLE   47  46  97 CALM      30.34F FOG
TETERBORO      LGT RAIN  46  44  93 CALM      30.34F FOG
CALDWELL       LGT RAIN  41  41 100 CALM      30.35F FOG
SOMERVILLE     FOG       40  40 100 CALM      30.33F VSB 3/4
ALLAIRE*       CLOUDY    53  51  93 S12G17    30.35F
TOMS RIVER*    CLOUDY    52  51  97 S14       30.35F

$$
PAZ043-044-047-054-055-060>062-066>071-200300-
EASTERN PENNSYLVANIA

CITY           SKY/WX    TMP DP  RH WIND       PRES   REMARKS
PHILADELPHIA   CLOUDY    48  47  96 W3        30.35S FOG
NORTH PHILA    CLOUDY    50  48  93 CALM      30.36S FOG
BLUE BELL*     CLOUDY    43  43 100 CALM      30.35F VSB 1/2
DOYLESTOWN     LGT RAIN  42  42 100 CALM      30.32F VSB 1
QUAKERTOWN*    FOG       37  37 100 CALM      30.33F VSB 1/4
PERKASIE*      FOG       37  37 100 CALM      30.34S VSB 1/4
POTTSTOWN      FOG       40  40 100 CALM      30.35S VSB 3/4
LANCASTER      FOG       42  42 100 E5        30.32F VSB 1/4
COATESVILLE    FOG       43 N/A N/A CALM      30.34S VSB<1/4
READING        FOG       38  38 100 CALM      30.32F VSB 1/4
ALLENTOWN      FOG       40  37  89 CALM      30.33F VSB 1/2
MOUNT POCONO   FOG       41  41 100 SW9       30.28S VSB 3/4
HAZLETON       FOG       41  39  93 SE3       30.31R VSB 1/4
LEHIGHTON      FOG       36  36 100 CALM      30.34S VSB 3/4
WILKES BARRE   CLOUDY    43  41  93 SW7       30.29S

$$
DEZALL-MDZ008-012-015-019-020-200300-
DELAWARE AND EASTERN MARYLAND

CITY           SKY/WX    TMP DP  RH WIND       PRES   REMARKS
WILMINGTON     FOG       45  45 100 S5        30.35S VSB 1/4
DOVER          CLOUDY    55  54  94 S14       30.34S
GEORGETOWN     CLOUDY    58  55  90 SW10      30.37S
EASTON         CLOUDY    54  52  94 S9        30.40R FOG
ABERDEEN       FOG      N/A N/A N/A CALM      30.35  VSB 1/2
PATUXENT       CLOUDY    51  51 100 VRB3      30.37
OCEAN CITY     CLOUDY    51  51 100 S6        30.40S
WALLOPS ISLAND CLOUDY    51  50  96 S6        30.41R
CAMBRIDGE      CLOUDY    52  50  93 S7        30.38R
SALISBURY      CLOUDY    56  56 100 S8        30.38S

$$
PAZ001-021-NYZ056-072-MDZ011-DCZ001-200300-
OTHER NEARBY LOCATIONS

CITY           SKY/WX    TMP DP  RH WIND       PRES   REMARKS
HARRISBURG     CLOUDY    42  41  96 E3        30.31F FOG
STATE COLLEGE  PTCLDY    37  37 100 CALM      30.25S
WILLIAMSPORT   CLOUDY    40  39  97 NE10      30.27R FOG     WCI  33
BINGHAMTON     LGT RAIN  40  39  97 S14G23    30.18F WCI  32
NEW YORK CITY  CLOUDY    48  47  96 CALM      30.37S FOG
BALTIMORE      FOG       44  44 100 CALM      30.35R VSB 3/4
WASHINGTON DC  CLOUDY    48  47  96 S7        30.36S

$$



USA.gov is the U.S. government's official web portal to all federal, state and local government web resources and services.